Regional Weather Roundup
Issued by NWS

Home | Current Version | Previous Version | Graphics & Text | Print | Product List | Glossary On
Versions: 1 2 3 4 5 6 7 8 9 10 11 12 13 14 15 16 17 18 19 20 21 22 23 24 25 26 27 28 29 30 31 32 33 34 35 36 37 38 39 40 41 42 43 44 45 46 47 48 49 50
000
ASUS45 KSLC 251910
RWRUT

UTAH REGIONAL WEATHER ROUNDUP
NATIONAL WEATHER SERVICE SALT LAKE CITY UT
100 PM MDT MON MAY 25 2015

UTZ001>011-023>025-252000-

NORTHERN UTAH

CITY           SKY/WX    TMP DP  RH WIND       PRES   REMARKS
BRIGHAM CITY   SUNNY     64  47  55 CALM      29.97S
HILL AFB       PTSUNNY   61  46  57 W2        29.98F
LOGAN          PTSUNNY   63  47  55 CALM      29.95F
OGDEN          PTSUNNY   62  49  62 VRB5      29.97S
PROVO AIRPORT  NOT AVBL
SALT LAKE CITY PTSUNNY   64  47  53 NW9       29.96F
VERNAL         CLOUDY    56  43  61 CALM      30.01S
WENDOVER       MOSUNNY   66  48  52 SE5       29.97F
HEBER CITY     MOSUNNY   61  41  48 N6        29.99F
WEST JORDAN    CLOUDY    63  46  55 W5        29.98S

$$

UTZ012>022-026-027-252000-

SOUTHERN/CENTRAL UTAH

CITY           SKY/WX    TMP DP  RH WIND       PRES   REMARKS
BLANDING       CLOUDY    57  45  64 SW10G17   30.08S
BRYCE CANYON   PTSUNNY   57  34  41 N6        30.10R
CEDAR CITY     SUNNY     65  38  36 VRB5      30.03S
DELTA          CLOUDY    65  40  40 NW5       30.00S
HANKSVILLE     PTSUNNY   70  37  30 NW12      29.97S
MILFORD        PTSUNNY   64  39  39 SW3       30.01S
MOAB/CYNLANDS  MOSUNNY   69  41  36 W6        29.94F
PRICE          PTSUNNY   63  40  42 S14G20    29.99S
ST GEORGE      PTCLDY    72  45  37 NW3       29.98F
KANAB          MOSUNNY   64  45  48 S8        30.05F

$$

REGIONAL REPORTS     COLORADO/ARIZONA

CITY           SKY/WX    TMP DP  RH WIND       PRES   REMARKS
CRAIG, CO      PTSUNNY   56  41  57 VRB7      30.01F
GRAND JUNCTION PTSUNNY   61  44  53 NE5       29.99S
RIFLE          PTSUNNY   59  40  49 W5        30.01F
MONTROSE       PTSUNNY   59  42  53 SW7       30.04S
CORTEZ         SUNNY     61  43  51 W7        30.02F
PAGE, AZ       SUNNY     69  44  40 VRB5      29.98F
GRAND CANYON   PTSUNNY   58  44  60 W8        30.11S
KINGMAN        SUNNY     79  39  23 W16G22    29.99S
FLAGSTAFF      TSTM      48  42  80 N9        30.15R

$$

REGIONAL REPORTS    NEVADA/IDAHO/WYOMING

CITY           SKY/WX    TMP DP  RH WIND       PRES   REMARKS
LAS VEGAS, NV  MOSUNNY   78  50  37 CALM      29.90F
ELY            PTSUNNY   60  36  40 CALM      30.06S
ELKO           MOSUNNY   64  46  52 SW8       29.98F
POCATELLO, ID  MOSUNNY   65  48  54 W10       29.95F
BURLEY         SUNNY     68  47  46 W6        29.92F
EVANSTON, WY   TSTM      44  42  93 N12       30.06R
ROCK SPRINGS   PTSUNNY   53  41  63 W6        30.01F
KEMMERER       PTSUNNY   52  39  62 NE14G20   30.02F

$$



USA.gov is the U.S. government's official web portal to all federal, state and local government web resources and services.